{"data":{"norad_id":64285,"epoch":"2026-05-25T02:39:25.242048Z","epoch_age_seconds":59288,"freshness":"FRESH","line1":"1 64285U 25121C   26145.11070882  .00000029  00000+0  32875-4 0  9990","line2":"2 64285  86.4970  21.1983 0001663  83.4979 276.6344 13.24407896 47109","mean_motion":13.24407896,"eccentricity":0.0001663,"inclination_deg":86.497,"raan_deg":21.1983,"arg_perigee_deg":83.4979,"mean_anomaly_deg":276.6344,"bstar":3.2875e-5,"rev_number":4710,"period_min":108.72783259214,"perigee_km":1166.675266606,"apogee_km":1169.1850885493,"semimajor_km":7546.0671775777,"source":"CELESTRAK","updated_at":"2026-05-25T13:38:04.386312Z"}}